sat.trackr.live / text

‹ back to catalog

STARLINK-35741

NORAD 66272 · 2025-247H

PAYLOAD ACTIVE UNKNOWN

§ Identity

Operator
Country
US
Launch date
2025-10-31
Launch site
AFWTR
Launch vehicle
Mass (kg)
RCS (m²)

Purposes: comms

External: N2YO · Heavens-Above · Gunter

§ Orbital elements

Epoch: 2026-05-24T20:41:11.446656Z

Period
93.85 min
Inclination
53.1578°
Eccentricity
0.0001077
Mean motion
15.34409359 rev/d
Perigee alt
461.9 km
Apogee alt
463.4 km
Semi-major
6,840.8 km
B*
4.4233e-4
RAAN
196.3799°
Arg perigee
82.8511°
Mean anomaly
277.2614°
Rev number
3,276

§ Raw data

STARLINK-357411 66272U 25247H   26144.86193804  .00014602  00000+0  44233-3 0  99902 66272  53.1578 196.3799 0001077  82.8511 277.2614 15.34409359 32768

JSON: /api/v1/satellites/66272 · /tle

For live sub-satellite position, see the globe view (requires WebGL).

§ Visibility from observer

Set your observer location to see the next 7 days of passes ≥ 10°. The values pass through the URL so the page stays shareable.

No JS? Fill the form by hand. The geolocation button needs JavaScript.